| time (UTC) | temp C | wind direction | speed KPH | gust KPH | rain 1hr cm | rain 24hr cm | rain mn cm | humidity % | barometer mb |
| 20260507182335 | 14 | 178 | 4.8 | 8.0 | 0.00 | 0.00 | 0.00 | 74 | 1028.0 |
| 20260507175331 | 13 | 66 | 4.8 | 4.8 | 0.00 | 0.00 | 0.00 | 74 | 1028.2 |
| 20260507172330 | 13 | 146 | 0.0 | 1.6 | 0.00 | 0.00 | 0.00 | 76 | 1028.6 |
| 20260507165326 | 12 | 175 | 1.6 | 1.6 | 0.00 | 0.00 | 0.00 | 80 | 1028.4 |
| 20260507162323 | 11 | 209 | 0.0 | 0.0 | 0.00 | 0.00 | 0.00 | 85 | 1028.4 |
| 20260507155319 | 12 | 201 | 0.0 | 1.6 | 0.00 | 0.00 | 0.00 | 86 | 1028.5 |
| 20260507152316 | 11 | 169 | 3.2 | 3.2 | 0.00 | 0.00 | 0.00 | 86 | 1028.7 |
| 20260507145313 | 10 | 191 | 0.0 | 0.0 | 0.00 | 0.00 | 0.00 | 88 | 1028.6 |
| 20260507142311 | 10 | 194 | 0.0 | 1.6 | 0.00 | 0.00 | 0.00 | 92 | 1028.7 |
| 20260507135310 | 9 | 195 | 0.0 | 1.6 | 0.00 | 0.00 | 0.00 | 98 | 1028.3 |
| 20260507132308 | 8 | 196 | 0.0 | 0.0 | 0.00 | 0.00 | 0.00 | 96 | 1028.6 |
| 20260507125306 | 9 | 184 | 0.0 | 1.6 | 0.00 | 0.00 | 0.00 | 95 | 1028.4 |
| 20260507122301 | 9 | 197 | 0.0 | 0.0 | 0.00 | 0.00 | 0.00 | 94 | 1028.7 |
| 20260507115256 | 9 | 194 | 0.0 | 0.0 | 0.00 | 0.00 | 0.00 | 95 | 1028.7 |
| 20260507112256 | 10 | 192 | 0.0 | 0.0 | 0.00 | 0.00 | 0.00 | 96 | 1029.0 |
| 20260507105253 | 10 | 198 | 0.0 | 0.0 | 0.00 | 0.00 | 0.00 | 97 | 1028.9 |
| 20260507102251 | 10 | 189 | 1.6 | 1.6 | 0.00 | 0.00 | 0.00 | 96 | 1029.2 |
| 20260507095248 | 10 | 197 | 1.6 | 1.6 | 0.00 | 0.00 | 0.00 | 97 | 1029.1 |
| 20260507092247 | 10 | 200 | 0.0 | 0.0 | 0.00 | 0.00 | 0.00 | 96 | 1028.9 |
| 20260507085244 | 10 | 200 | 0.0 | 0.0 | 0.00 | 0.00 | 0.00 | 96 | 1028.8 |
| 20260507082241 | 10 | 203 | 0.0 | 0.0 | 0.00 | 0.00 | 0.00 | 97 | 1028.7 |
| 20260507075236 | 10 | 206 | 0.0 | 0.0 | 0.00 | 0.00 | 0.00 | 99 | 1028.9 |
| 20260507072236 | 10 | 208 | 0.0 | 0.0 | 0.00 | 0.00 | 0.00 | 99 | 1028.7 |
| 20260507065235 | 10 | 205 | 0.0 | 0.0 | 0.00 | 0.00 | 0.00 | 98 | 1028.7 |
| 20260507062231 | 11 | 207 | 0.0 | 0.0 | 0.00 | 0.00 | 0.00 | 97 | 1028.8 |
| 20260507055230 | 11 | 209 | 0.0 | 0.0 | 0.00 | 0.00 | 0.00 | 94 | 1029.1 |
| 20260507052225 | 11 | 208 | 0.0 | 0.0 | 0.00 | 0.00 | 0.00 | 92 | 1029.1 |
| 20260507045223 | 12 | 209 | 0.0 | 0.0 | 0.00 | 0.00 | 0.00 | 91 | 1028.9 |
| 20260507042219 | 12 | 201 | 0.0 | 0.0 | 0.00 | 0.00 | 0.00 | 91 | 1028.8 |
| 20260507035216 | 12 | 205 | 0.0 | 0.0 | 0.00 | 0.00 | 0.00 | 90 | 1028.9 |
| 20260507032211 | 12 | 200 | 1.6 | 1.6 | 0.00 | 0.00 | 0.00 | 88 | 1028.6 |
| 20260507025211 | 12 | 205 | 0.0 | 0.0 | 0.00 | 0.00 | 0.00 | 86 | 1028.3 |
| 20260507022209 | 13 | 200 | 0.0 | 0.0 | 0.00 | 0.00 | 0.00 | 86 | 1028.3 |
| 20260507015209 | 13 | 200 | 0.0 | 0.0 | 0.00 | 0.00 | 0.00 | 85 | 1028.3 |
| 20260507012206 | 13 | 204 | 0.0 | 1.6 | 0.00 | 0.00 | 0.00 | 85 | 1028.1 |
| 20260507005206 | 14 | 212 | 0.0 | 1.6 | 0.00 | 0.00 | 0.00 | 83 | 1028.2 |
| 20260507002201 | 13 | 212 | 0.0 | 1.6 | 0.00 | 0.00 | 0.00 | 84 | 1028.3 |
| 20260506235157 | 14 | 209 | 0.0 | 1.6 | 0.00 | 0.00 | 0.00 | 83 | 1028.5 |
| 20260506232154 | 13 | 207 | 0.0 | 0.0 | 0.00 | 0.00 | 0.00 | 84 | 1028.4 |
| 20260506225154 | 13 | 211 | 1.6 | 1.6 | 0.00 | 0.00 | 0.00 | 83 | 1028.4 |
| 20260506222150 | 13 | 210 | 0.0 | 0.0 | 0.00 | 0.00 | 0.00 | 86 | 1028.7 |
| 20260506215148 | 13 | 211 | 0.0 | 0.0 | 0.00 | 0.00 | 0.00 | 85 | 1028.7 |
| 20260506212147 | 13 | 211 | 1.6 | 1.6 | 0.00 | 0.00 | 0.00 | 86 | 1028.5 |
| 20260506205143 | 12 | 199 | 0.0 | 0.0 | 0.00 | 0.00 | 0.00 | 88 | 1028.7 |
| 20260506202138 | 12 | 210 | 0.0 | 0.0 | 0.00 | 0.00 | 0.00 | 89 | 1028.5 |
| 20260506195137 | 12 | 209 | 0.0 | 0.0 | 0.00 | 0.00 | 0.00 | 91 | 1028.5 |
| 20260506192136 | 12 | 209 | 0.0 | 0.0 | 0.00 | 0.00 | 0.00 | 94 | 1028.3 |
| 20260506185134 | 12 | 209 | 0.0 | 0.0 | 0.00 | 0.00 | 0.00 | 95 | 1028.2 |